Showing default

SYMPHONIE 1, 7578

Orbit data source: Space-Track

SYMPHONIE 1, 7578 is an FR and DE payload satellite in GEO that was launched on Thu, 19 Dec 1974 UTC via a DELTA 2914 launch vehicle from the Air Force Eastern Test Range (AFETR). Payload-class satellites include a variety of spacecraft equipped with specific instruments for various scientific and technological missions. These include communications satellites like Starlink; space stations such as the ISS; scientific satellites like the Hubble; Earth observation satellites from companies like Planet Labs, Umbra, and HawkEye 360; GPS; miniature CubeSats for education and research; and military/defense satellites.

Loading next visibility...
Identifier
7578, 1974-101A
Orbit
GEO
Country
Flag of UnknownUnknown / FGER
Related business
Manufacturer
AELM/CIFAS
Mission
Civil Communications
Bus & Motor
SYMPHONIE, S400
Mass
400 kg wet, 240 kg dry
Launch date (UTC)
1974-12-19 (51 years ago)
Launch vehicle
DELTA 2914
Launch site
Air Force Eastern Test Range (AFETR)
Object type
Payload
Rocket body
Debris
Shape & HBR
Hex Cyl + 3 Pan, 3.4 m
Radar Cross Section
5.619 m², Large (>1 m²)

Expand to show TLE details & history
Last TLE update: 18 hours ago

TLE from 18 hours ago
0 SYMPHONIE 1
1 07578U 74101A   25242.57699714 -.00000041  00000-0  00000-0 0  9999
2 07578   5.3235 280.6483 0002397 292.8903 228.9341  0.99942979114296
Epoch: 2025-08-30T13:50Z
TLE epoch observation values (Epoch: 2025-08-30T13:50:52.552Z)
Latitude
1.65092°
Longitude
-104.1957°
Altitude
35,884.942 km
Speed
3.071 km/s
True Right ascension
05h 30m 07s
True Declination
1° 38' 57"
Sunlit
Object was in daylight at epoch
Visualization orbit readout
Latitude
Unknown
Longitude
Unknown
Altitude
Unknown
Speed
Unknown
Apparent Right ascension
Unknown
Apparent Declination
Unknown
Sunlit
N/A
Visualization observer readout
Local Sidereal Time
23:57:44
Azimuth
Unknown
Elevation
Unknown
Doppler factor
Unknown
Orbital elements
Apogee altitude
35,890.208 km
Perigee altitude
35,869.949 km
Semi-major axis
42,258.216 km
Eccentricity
0.00024
Inclination
5.3235°
RAAN
280.6483°
Arg. of periapsis
292.8903°
True anomaly
228.91339°
Mean anomaly
228.9341°
Eccentric anomaly
228.92375°
Mean motion
0.24985 °/min
Orbital period
1,440.87 mins
BSTAR
0
Loading maneuver chart data...
Computing Atmospheric mass density...
Loading historical data...
Loading historical data...
Loading historical data...
Loading historical data...
Loading historical data...
Loading historical data...
Loading historical data...

Documentation

Showing up to 5 results
|